EZY96QE EDDL-EGKK

Flight info

Callsign EZY96QE
Flight time N/A
Altitude 32000
Route MODRU7Z MODRU Z717 MAS UM617 SOGRI DCT DENUT L610 TEBRA
Aircraft A320/M-SDE3FGHIRWY/LB1

Departure

Time 2026-05-07 19:47
Airport Düsseldorf Airport (EDDL)

Arrival

Time N/A
Airport London Gatwick Airport (EGKK)
Time Latitude Longitude Altitude Speed Heading
2026-05-07 19:18 51.28271 6.76674 127 ft 0 kts 225°
2026-05-07 19:35 51.28283 6.76693 123 ft 5 kts 224°
2026-05-07 19:36 51.28306 6.76731 123 ft 5 kts 228°
2026-05-07 19:36 51.28320 6.76759 124 ft 2 kts 248°
2026-05-07 19:36 51.28324 6.76776 126 ft 2 kts 291°
2026-05-07 19:36 51.28318 6.76792 124 ft 2 kts 319°
2026-05-07 19:37 51.28310 6.76803 127 ft 2 kts 323°
2026-05-07 19:37 51.28306 6.76808 126 ft 0 kts 323°
2026-05-07 19:40 51.28309 6.76804 128 ft 3 kts 323°
2026-05-07 19:40 51.28345 6.76760 124 ft 9 kts 322°
2026-05-07 19:41 51.28393 6.76699 122 ft 9 kts 322°
2026-05-07 19:41 51.28414 6.76627 124 ft 6 kts 264°
2026-05-07 19:41 51.28384 6.76552 124 ft 10 kts 233°
2026-05-07 19:41 51.28330 6.76441 123 ft 15 kts 232°
2026-05-07 19:42 51.28259 6.76292 124 ft 17 kts 233°
2026-05-07 19:42 51.28194 6.76158 126 ft 14 kts 233°
2026-05-07 19:42 51.28140 6.76044 127 ft 12 kts 230°
2026-05-07 19:42 51.28094 6.75946 128 ft 10 kts 234°
2026-05-07 19:43 51.28049 6.75852 128 ft 14 kts 232°
2026-05-07 19:43 51.27978 6.75703 124 ft 17 kts 233°
2026-05-07 19:43 51.27916 6.75574 127 ft 14 kts 232°
2026-05-07 19:43 51.27859 6.75455 122 ft 13 kts 233°
2026-05-07 19:44 51.27850 6.75349 122 ft 9 kts 301°
2026-05-07 19:44 51.27884 6.75314 122 ft 0 kts 335°
2026-05-07 19:44 51.27885 6.75313 122 ft 0 kts 335°
2026-05-07 19:45 51.27894 6.75306 124 ft 6 kts 335°
2026-05-07 19:45 51.27962 6.75255 123 ft 10 kts 338°
2026-05-07 19:45 51.28003 6.75288 121 ft 0 kts 53°
2026-05-07 19:46 51.28006 6.75294 122 ft 10 kts 53°
2026-05-07 19:46 51.28217 6.75737 125 ft 86 kts 53°
2026-05-07 19:46 51.28701 6.76752 124 ft 142 kts 52°
2026-05-07 19:46 51.29370 6.78085 351 ft 170 kts 47°
2026-05-07 19:47 51.30117 6.79154 899 ft 167 kts 40°
2026-05-07 19:47 51.30947 6.80425 1638 ft 166 kts 52°
2026-05-07 19:47 51.31637 6.81923 2239 ft 172 kts 57°
2026-05-07 19:47 51.32296 6.83630 2602 ft 191 kts 60°
2026-05-07 19:48 51.32993 6.85576 2910 ft 212 kts 60°
2026-05-07 19:48 51.33844 6.87620 3311 ft 231 kts 51°
2026-05-07 19:48 51.35050 6.89487 3805 ft 252 kts 34°
2026-05-07 19:48 51.36633 6.90766 4585 ft 260 kts 18°
2026-05-07 19:49 51.38415 6.91353 5432 ft 262 kts
2026-05-07 19:49 51.40222 6.91821 6386 ft 264 kts
2026-05-07 19:49 51.42050 6.92305 7236 ft 268 kts
2026-05-07 19:49 51.43905 6.92795 8052 ft 273 kts
2026-05-07 19:50 51.45798 6.93290 8856 ft 278 kts
2026-05-07 19:50 51.47738 6.93159 9614 ft 283 kts 343°
2026-05-07 19:50 51.49506 6.91769 10345 ft 287 kts 321°
2026-05-07 19:50 51.50882 6.89323 10641 ft 308 kts 298°
2026-05-07 19:51 51.51731 6.86097 10879 ft 329 kts 290°
2026-05-07 19:51 51.52559 6.82556 11456 ft 338 kts 290°
2026-05-07 19:51 51.53392 6.79001 12180 ft 342 kts 290°
2026-05-07 19:51 51.54238 6.75412 12919 ft 345 kts 290°
2026-05-07 19:52 51.54966 6.71775 13630 ft 348 kts 281°
2026-05-07 19:52 51.55206 6.67895 14283 ft 352 kts 268°
2026-05-07 19:52 51.54897 6.63986 14918 ft 355 kts 256°
2026-05-07 19:52 51.54041 6.60260 15554 ft 358 kts 243°
2026-05-07 19:53 51.52890 6.56698 16195 ft 361 kts 243°
2026-05-07 19:53 51.51726 6.53105 16832 ft 364 kts 243°
2026-05-07 19:53 51.50551 6.49486 17451 ft 367 kts 243°
2026-05-07 19:53 51.49367 6.45839 18069 ft 370 kts 243°
2026-05-07 19:54 51.48173 6.42156 18648 ft 373 kts 242°
2026-05-07 19:54 51.46776 6.38636 19165 ft 376 kts 232°
2026-05-07 19:54 51.44954 6.35608 19686 ft 380 kts 220°
2026-05-07 19:54 51.42770 6.33218 20208 ft 383 kts 209°
2026-05-07 19:55 51.40310 6.31542 20721 ft 387 kts 201°
2026-05-07 19:55 51.37772 6.30063 21218 ft 389 kts 201°
2026-05-07 19:55 51.35216 6.28568 21742 ft 392 kts 201°
2026-05-07 19:55 51.32676 6.27072 22217 ft 395 kts 201°
2026-05-07 19:56 51.30092 6.25546 22696 ft 397 kts 202°
2026-05-07 19:56 51.27493 6.24014 23192 ft 400 kts 202°
2026-05-07 19:56 51.24878 6.22470 23663 ft 402 kts 203°
2026-05-07 19:56 51.22446 6.20310 24045 ft 401 kts 219°
2026-05-07 19:57 51.20571 6.17516 24397 ft 402 kts 226°
2026-05-07 19:57 51.18610 6.14334 24806 ft 404 kts 227°
2026-05-07 19:57 51.16658 6.11101 25198 ft 406 kts 227°
2026-05-07 19:57 51.14708 6.07838 25577 ft 407 kts 227°
2026-05-07 19:58 51.12751 6.04562 25951 ft 409 kts 227°
2026-05-07 19:58 51.10777 6.01278 26319 ft 412 kts 227°
2026-05-07 19:58 51.08786 5.97991 26692 ft 413 kts 227°
2026-05-07 19:58 51.06767 5.94719 27054 ft 416 kts 226°
2026-05-07 19:59 51.04705 5.91481 27407 ft 418 kts 225°
2026-05-07 19:59 51.02611 5.88257 27769 ft 420 kts 225°
2026-05-07 19:59 51.00601 5.84890 28112 ft 421 kts 234°
2026-05-07 19:59 50.99185 5.80834 28446 ft 421 kts 250°
2026-05-07 20:00 50.98557 5.76302 28770 ft 423 kts 266°
2026-05-07 20:00 50.98778 5.71637 29081 ft 427 kts 281°
2026-05-07 20:00 50.99409 5.67028 29394 ft 429 kts 281°
2026-05-07 20:00 51.00050 5.62395 29703 ft 430 kts 281°
2026-05-07 20:01 51.00690 5.57740 30003 ft 432 kts 281°
2026-05-07 20:01 51.01327 5.53067 30286 ft 434 kts 281°
2026-05-07 20:01 51.01961 5.48373 30545 ft 436 kts 281°
2026-05-07 20:01 51.02590 5.43659 30829 ft 436 kts 281°
2026-05-07 20:02 51.03216 5.38948 31204 ft 435 kts 281°
2026-05-07 20:02 51.03837 5.34261 31563 ft 433 kts 281°
2026-05-07 20:02 51.04454 5.29581 31925 ft 432 kts 281°
2026-05-07 20:02 51.05063 5.24971 32063 ft 430 kts 281°
2026-05-07 20:03 51.06279 5.15773 32090 ft 422 kts 281°
2026-05-07 20:03 51.07479 5.06653 32086 ft 421 kts 281°
2026-05-07 20:04 51.08669 4.97531 32088 ft 421 kts 280°
2026-05-07 20:04 51.09839 4.88416 32088 ft 421 kts 280°
2026-05-07 20:05 51.11007 4.79300 32086 ft 420 kts 280°
2026-05-07 20:05 51.12178 4.70177 32085 ft 420 kts 280°
2026-05-07 20:06 51.13335 4.61062 32083 ft 420 kts 280°
2026-05-07 20:06 51.14479 4.51952 32084 ft 420 kts 280°
2026-05-07 20:07 51.15626 4.42841 32085 ft 419 kts 280°
2026-05-07 20:07 51.16761 4.33732 32084 ft 419 kts 280°
2026-05-07 20:08 51.17872 4.24685 32085 ft 419 kts 280°
2026-05-07 20:08 51.18996 4.15522 32084 ft 419 kts 280°
2026-05-07 20:09 51.20097 4.06480 32081 ft 418 kts 280°
2026-05-07 20:10 51.21744 3.92820 32081 ft 418 kts 279°
2026-05-07 20:10 51.22827 3.83713 32083 ft 418 kts 279°
2026-05-07 20:11 51.23914 3.74602 32087 ft 418 kts 279°
2026-05-07 20:11 51.24989 3.65485 32087 ft 418 kts 279°
2026-05-07 20:12 51.26052 3.56367 32091 ft 417 kts 279°
2026-05-07 20:12 51.27114 3.47256 32089 ft 417 kts 279°
2026-05-07 20:13 51.27996 3.39692 32091 ft 417 kts 279°
2026-05-07 20:13 51.29219 3.29042 32090 ft 416 kts 279°
2026-05-07 20:14 51.30249 3.19936 32090 ft 416 kts 279°
2026-05-07 20:14 51.31103 3.12392 31367 ft 414 kts 279°
2026-05-07 20:14 51.31614 3.07861 30688 ft 413 kts 279°
2026-05-07 20:15 51.32118 3.03366 30126 ft 409 kts 279°
2026-05-07 20:15 51.32776 2.97470 29301 ft 404 kts 279°
2026-05-07 20:15 51.33108 2.94491 29110 ft 403 kts 279°
2026-05-07 20:16 51.34089 2.85659 29085 ft 404 kts 279°
2026-05-07 20:16 51.35060 2.76815 29083 ft 399 kts 279°
2026-05-07 20:16 51.35527 2.72596 29083 ft 382 kts 279°
2026-05-07 20:17 51.36020 2.68451 29088 ft 367 kts 279°
2026-05-07 20:17 51.37011 2.60579 29086 ft 361 kts 280°
2026-05-07 20:18 51.38001 2.52700 29091 ft 361 kts 280°
2026-05-07 20:18 51.38484 2.48768 28841 ft 358 kts 279°
2026-05-07 20:18 51.38961 2.44867 28336 ft 356 kts 279°
2026-05-07 20:18 51.39433 2.40990 27828 ft 353 kts 279°
2026-05-07 20:19 51.39897 2.37150 27230 ft 350 kts 279°
2026-05-07 20:19 51.40354 2.33335 26646 ft 348 kts 279°
2026-05-07 20:19 51.40805 2.29539 26077 ft 345 kts 279°
2026-05-07 20:19 51.41253 2.25779 25520 ft 343 kts 279°
2026-05-07 20:20 51.41701 2.22044 24976 ft 340 kts 279°
2026-05-07 20:20 51.42148 2.18335 24442 ft 338 kts 279°
2026-05-07 20:20 51.42589 2.14646 23915 ft 336 kts 279°
2026-05-07 20:20 51.43023 2.10978 23353 ft 334 kts 279°
2026-05-07 20:21 51.43449 2.07335 22764 ft 332 kts 279°
2026-05-07 20:21 51.43873 2.03711 22196 ft 330 kts 279°
2026-05-07 20:21 51.44295 2.00114 21645 ft 328 kts 279°
2026-05-07 20:21 51.44716 1.96583 21126 ft 326 kts 279°
2026-05-07 20:22 51.45154 1.93035 20603 ft 324 kts 280°
2026-05-07 20:22 51.45598 1.89500 20093 ft 322 kts 280°
2026-05-07 20:22 51.46038 1.85991 19603 ft 320 kts 280°
2026-05-07 20:22 51.46461 1.82493 19120 ft 319 kts 279°
2026-05-07 20:23 51.46868 1.79011 18656 ft 317 kts 279°
2026-05-07 20:23 51.47243 1.75721 18205 ft 316 kts 279°
2026-05-07 20:23 51.47632 1.72266 17697 ft 314 kts 279°
2026-05-07 20:23 51.48020 1.68830 17213 ft 312 kts 279°
2026-05-07 20:24 51.48394 1.65413 16740 ft 310 kts 276°
2026-05-07 20:24 51.48483 1.61981 16276 ft 307 kts 265°
2026-05-07 20:24 51.48197 1.58610 15845 ft 304 kts 256°
2026-05-07 20:24 51.47568 1.55386 15405 ft 302 kts 249°
2026-05-07 20:25 51.46843 1.52236 14966 ft 300 kts 249°
2026-05-07 20:25 51.46121 1.49105 14554 ft 299 kts 249°
2026-05-07 20:25 51.45409 1.46013 14324 ft 291 kts 249°
2026-05-07 20:25 51.44716 1.42998 14135 ft 287 kts 248°
2026-05-07 20:26 51.43927 1.40072 14091 ft 285 kts 240°
2026-05-07 20:26 51.42844 1.37481 14093 ft 276 kts 230°
2026-05-07 20:26 51.41523 1.35280 14096 ft 273 kts 220°
2026-05-07 20:26 51.40020 1.33423 14096 ft 273 kts 216°
2026-05-07 20:27 51.38495 1.31616 14093 ft 273 kts 216°
2026-05-07 20:27 51.36970 1.29808 14092 ft 273 kts 216°
2026-05-07 20:27 51.35446 1.28005 14097 ft 273 kts 216°
2026-05-07 20:27 51.33919 1.26203 14097 ft 273 kts 216°
2026-05-07 20:28 51.32415 1.24428 14097 ft 272 kts 216°
2026-05-07 20:28 51.30890 1.22627 14097 ft 272 kts 216°
2026-05-07 20:28 51.29364 1.20829 14093 ft 273 kts 216°
2026-05-07 20:28 51.27838 1.19033 14090 ft 273 kts 216°
2026-05-07 20:29 51.26311 1.17235 14092 ft 273 kts 216°
2026-05-07 20:29 51.24784 1.15436 14086 ft 273 kts 216°
2026-05-07 20:29 51.23257 1.13641 14086 ft 273 kts 216°
2026-05-07 20:29 51.21729 1.11848 14087 ft 273 kts 216°
2026-05-07 20:30 51.20250 1.09957 14089 ft 273 kts 227°
2026-05-07 20:30 51.19196 1.07342 14089 ft 291 kts 243°
2026-05-07 20:30 51.18300 1.04411 14092 ft 296 kts 242°
2026-05-07 20:30 51.17256 1.01579 14090 ft 297 kts 237°
2026-05-07 20:31 51.16147 0.98798 14086 ft 297 kts 237°
2026-05-07 20:31 51.15033 0.96024 14087 ft 298 kts 237°
2026-05-07 20:31 51.13917 0.93247 14087 ft 298 kts 236°
2026-05-07 20:31 51.12800 0.90468 14086 ft 298 kts 237°
2026-05-07 20:32 51.11686 0.87700 14017 ft 296 kts 237°
2026-05-07 20:32 51.10578 0.84946 13665 ft 295 kts 236°
2026-05-07 20:32 51.09473 0.82206 13309 ft 294 kts 237°
2026-05-07 20:32 51.08371 0.79480 12959 ft 292 kts 237°
2026-05-07 20:33 51.07273 0.76772 12625 ft 290 kts 236°
2026-05-07 20:33 51.06179 0.74083 12266 ft 289 kts 237°
2026-05-07 20:33 51.05086 0.71406 11935 ft 288 kts 237°
2026-05-07 20:33 51.04013 0.68731 11591 ft 286 kts 241°
2026-05-07 20:34 51.03280 0.65804 11249 ft 285 kts 250°
2026-05-07 20:34 51.02632 0.62835 10765 ft 284 kts 250°
2026-05-07 20:34 51.01987 0.59879 10426 ft 282 kts 250°
2026-05-07 20:34 51.01344 0.56944 10100 ft 281 kts 250°
2026-05-07 20:35 51.00742 0.54010 9749 ft 279 kts 258°
2026-05-07 20:35 51.00629 0.50959 9457 ft 275 kts 270°
2026-05-07 20:35 51.00685 0.47979 9314 ft 265 kts 271°
2026-05-07 20:35 51.00753 0.45106 9126 ft 257 kts 271°
2026-05-07 20:36 51.00819 0.42308 8956 ft 249 kts 271°
2026-05-07 20:36 51.00882 0.39628 8718 ft 244 kts 271°
2026-05-07 20:36 51.00931 0.37497 8464 ft 243 kts 271°
2026-05-07 20:37 51.00939 0.37158 8423 ft 243 kts 271°
2026-05-07 20:37 51.00781 0.34576 8066 ft 241 kts 264°
2026-05-07 20:38 51.00744 0.31918 7729 ft 241 kts 270°
2026-05-07 20:38 51.00773 0.30129 7503 ft 240 kts 271°
2026-05-07 20:38 51.00817 0.28430 7281 ft 240 kts 272°
2026-05-07 20:39 51.00889 0.25786 6990 ft 238 kts 271°
2026-05-07 20:39 51.00948 0.23161 6945 ft 239 kts 271°
2026-05-07 20:39 51.01006 0.20518 6953 ft 240 kts 271°
2026-05-07 20:39 51.00983 0.17901 6965 ft 240 kts 267°
2026-05-07 20:40 51.00898 0.15255 6975 ft 240 kts 266°
2026-05-07 20:40 51.00804 0.12609 7087 ft 240 kts 266°
2026-05-07 20:40 51.00709 0.09961 7084 ft 240 kts 266°
2026-05-07 20:40 51.00614 0.07318 7084 ft 240 kts 266°
2026-05-07 20:41 51.00517 0.04675 7084 ft 239 kts 266°
2026-05-07 20:41 51.00420 0.02034 7084 ft 239 kts 266°
2026-05-07 20:41 51.00324 -0.00569 7080 ft 239 kts 266°
2026-05-07 20:41 51.00227 -0.03202 7089 ft 239 kts 266°
2026-05-07 20:42 51.00130 -0.05839 7085 ft 239 kts 266°
2026-05-07 20:42 51.00032 -0.08455 6869 ft 237 kts 266°
2026-05-07 20:42 50.99933 -0.11067 6556 ft 237 kts 266°
2026-05-07 20:42 50.99835 -0.13598 6246 ft 238 kts 266°
2026-05-07 20:43 50.99735 -0.16217 5927 ft 238 kts 266°
2026-05-07 20:43 50.99637 -0.18840 5616 ft 238 kts 266°
2026-05-07 20:43 50.99539 -0.21461 5302 ft 238 kts 266°
2026-05-07 20:43 50.99443 -0.24080 4995 ft 238 kts 266°
2026-05-07 20:44 50.99347 -0.26697 4699 ft 237 kts 266°
2026-05-07 20:44 50.99251 -0.29308 4391 ft 236 kts 266°
2026-05-07 20:44 50.99153 -0.31910 4099 ft 236 kts 266°
2026-05-07 20:44 50.99056 -0.34505 3804 ft 235 kts 266°
2026-05-07 20:45 50.98961 -0.37099 3506 ft 235 kts 266°
2026-05-07 20:45 50.98868 -0.39686 3207 ft 235 kts 266°
2026-05-07 20:45 50.98778 -0.42270 3016 ft 234 kts 266°
2026-05-07 20:45 50.98727 -0.44851 2998 ft 235 kts 275°
2026-05-07 20:46 50.99294 -0.47241 3002 ft 235 kts 309°
2026-05-07 20:46 51.00556 -0.48761 3007 ft 232 kts 341°
2026-05-07 20:46 51.02114 -0.49422 3011 ft 232 kts 350°
2026-05-07 20:46 51.03697 -0.49912 3004 ft 232 kts 351°
2026-05-07 20:47 51.05282 -0.50382 3003 ft 230 kts 351°
2026-05-07 20:47 51.06818 -0.50765 2994 ft 216 kts
2026-05-07 20:47 51.07703 -0.50525 2993 ft 204 kts 25°
2026-05-07 20:47 51.09093 -0.48778 3009 ft 188 kts 49°
2026-05-07 20:48 51.09959 -0.47246 3004 ft 185 kts 51°
2026-05-07 20:48 51.10801 -0.45700 3005 ft 184 kts 53°
2026-05-07 20:48 51.11352 -0.43902 3008 ft 182 kts 78°
2026-05-07 20:48 51.11626 -0.41934 2918 ft 182 kts 78°
2026-05-07 20:49 51.11899 -0.39975 2705 ft 181 kts 78°
2026-05-07 20:49 51.12172 -0.38023 2463 ft 180 kts 78°
2026-05-07 20:49 51.12437 -0.36130 2231 ft 169 kts 79°
2026-05-07 20:49 51.12685 -0.34354 2016 ft 161 kts 79°
2026-05-07 20:50 51.12926 -0.32626 1783 ft 159 kts 79°
2026-05-07 20:50 51.13166 -0.30908 1560 ft 158 kts 79°
2026-05-07 20:50 51.13401 -0.29222 1340 ft 151 kts 79°
2026-05-07 20:50 51.13616 -0.27673 1141 ft 141 kts 78°
2026-05-07 20:51 51.13803 -0.26350 968 ft 138 kts 78°
2026-05-07 20:51 51.14008 -0.24867 783 ft 136 kts 79°
2026-05-07 20:51 51.14210 -0.23416 596 ft 136 kts 78°
2026-05-07 20:51 51.14414 -0.21951 394 ft 135 kts 79°
2026-05-07 20:52 51.14617 -0.20490 239 ft 134 kts 79°
2026-05-07 20:52 51.14795 -0.19156 209 ft 105 kts 77°
2026-05-07 20:52 51.14845 -0.18805 211 ft 88 kts 77°